Location: Unspecified
(0.0000°N, 0.0000°E)
Time: 22:02:33
(UTC+00:00)

Hubble Space Telescope - Pass Details

Date: 09 March 2018
Orbit: 537 x 541 km, 28.5° (Epoch: 18 June)

Event Time Altitude Azimuth Distance (km) Brightness Sun altitude
Exits shadow 04:50:12 58° 261° (W) 624 0.7 -20.0°
Maximum altitude 04:50:48 68° 210° (SSW) 574 0.7 -19.9°
Drops below altitude 10° 04:54:54 10° 127° (SE) 1,782 4.3 -18.9°
Sets 04:57:11 0° 124° (SE) 2,675 5.4 -18.3°
